Date String (YYYY-MM-DD hh:mm:ss) UTC,Instrument flags,absolute air pressure of the measurement (hPa),sample flow rate (lpm),inlet stack bypass flow (lpm),air temperature of the measurement (°C),ambient temperature measured by the external sensor (°C),aerosol sample conditioner tube jacket temperature (°C),OPC LED temperature (°C),internal box temperature (°C),relative humidity of the measurement (%),span deviation,mass concentration of particles derived from Lorenz-Mie calculation of OPC scattering (μg/m³),mass concentration of particles derived from Lorenz-Mie calculation of OPC scattering (μg/m³),mass concentration of particles derived from Lorenz-Mie calculation of OPC scattering (μg/m³)
DateTimeUTC,F1_M11,P_M11,Q1_M11,Q2_M11,T1_M11,T2_M11,T3_M11,T4_M11,T5_M11,U1_M11,ZSPAN_M11,X0_M11,X2_M11,X1_M11
2023-06-09 21:00:00,SystemResetWarning,0829.4,5.01,000.00,029.2,027.4,000.0,037.7,030.7,20.8,0000.0,0008.44,0003.44,0002.38
2023-06-09 21:01:00,SystemResetWarning,0829.3,5.02,000.00,029.2,027.6,000.0,037.7,030.7,20.3,0000.0,0008.28,0003.40,0002.33
2023-06-09 21:02:00,SystemResetWarning,0829.2,5.00,000.00,029.2,027.7,000.0,037.8,030.8,20.4,0000.0,0008.91,0003.39,0002.29
2023-06-09 21:03:00,SystemResetWarning,0829.2,5.00,000.00,029.3,027.7,000.0,037.8,030.8,20.4,0000.0,0009.18,0003.38,0002.25
2023-06-09 21:04:00,SystemResetWarning,0829.3,4.98,000.00,029.3,026.3,000.0,037.7,030.8,20.5,0000.0,0009.06,0003.32,0002.21
2023-06-09 21:05:00,SystemResetWarning,0829.4,5.02,000.00,029.3,024.7,000.0,037.7,030.7,19.7,0000.0,0009.88,0003.34,0002.18
2023-06-09 21:06:00,SystemResetWarning,0829.5,5.01,000.00,029.2,024.8,000.0,037.6,030.5,19.7,0000.0,0010.55,0003.32,0002.16
2023-06-09 21:07:00,SystemResetWarning,0829.6,5.00,000.00,029.1,025.1,000.0,037.6,030.3,19.8,0000.0,0010.28,0003.32,0002.18
2023-06-09 21:08:00,SystemResetWarning,0829.6,5.00,000.00,029.0,025.4,000.0,037.6,030.3,19.2,0000.0,0010.34,0003.37,0002.21
2023-06-09 21:09:00,SystemResetWarning,0829.7,4.99,000.00,029.0,025.8,000.0,037.6,030.3,19.2,0000.0,0010.41,0003.42,0002.26
2023-06-09 21:10:00,SystemResetWarning,0829.7,4.99,000.00,029.0,026.2,000.0,037.6,030.3,19.8,0000.0,0010.27,0003.45,0002.30
2023-06-09 21:11:00,SystemResetWarning,0829.7,5.00,000.00,029.0,026.5,000.0,037.6,030.4,20.2,0000.0,0010.24,0003.46,0002.33
2023-06-09 21:12:00,SystemResetWarning,0829.7,5.01,000.00,029.0,026.7,000.0,037.6,030.4,19.9,0000.0,0011.67,0003.50,0002.38
2023-06-09 21:13:00,SystemResetWarning,0829.7,5.01,000.00,029.0,026.9,000.0,037.6,030.4,19.6,0000.0,0011.46,0003.54,0002.43
2023-06-09 21:14:00,SystemResetWarning,0829.7,5.00,000.00,029.0,027.1,000.0,037.6,030.5,19.7,0000.0,0010.97,0003.56,0002.48
2023-06-09 21:15:00,SystemResetWarning,0829.6,4.99,000.00,029.0,027.3,000.0,037.6,030.5,19.8,0000.0,0011.06,0003.61,0002.55
2023-06-09 21:16:00,SystemResetWarning,0829.6,5.00,000.00,029.1,027.4,000.0,037.6,030.5,20.3,0000.0,0010.38,0003.58,0002.59
2023-06-09 21:17:00,SystemResetWarning,0829.4,5.01,000.00,029.1,027.5,000.0,037.6,030.6,20.3,0000.0,0009.17,0003.61,0002.66
2023-06-09 21:18:00,SystemResetWarning,0829.4,5.00,000.00,029.1,027.6,000.0,037.6,030.7,20.1,0000.0,0009.52,0003.64,0002.71
2023-06-09 21:19:00,SystemResetWarning,0829.3,5.01,000.00,029.1,027.7,000.0,037.6,030.7,20.1,0000.0,0010.11,0003.63,0002.74
2023-06-09 21:20:00,SystemResetWarning,0829.3,5.00,000.00,029.2,027.7,000.0,037.7,030.7,20.2,0000.0,0010.32,0003.68,0002.77
2023-06-09 21:21:00,SystemResetWarning,0829.3,5.00,000.00,029.2,027.8,000.0,037.7,030.7,19.9,0000.0,0010.51,0003.79,0002.82
2023-06-09 21:22:00,SystemResetWarning,0829.3,5.00,000.00,029.2,027.8,000.0,037.7,030.8,20.1,0000.0,0010.51,0003.83,0002.85
2023-06-09 21:23:00,SystemResetWarning,0829.4,4.99,000.00,029.2,027.6,000.0,037.7,030.8,20.6,0000.0,0009.23,0003.85,0002.87
2023-06-09 21:24:00,SystemResetWarning,0829.3,4.99,000.00,029.2,025.7,000.0,037.6,030.7,20.9,0000.0,0009.14,0003.90,0002.91
2023-06-09 21:25:00,SystemResetWarning,0829.4,5.01,000.00,029.2,024.6,000.0,037.6,030.7,21.6,0000.0,0009.37,0003.95,0002.93
2023-06-09 21:26:00,SystemResetWarning,0829.4,5.00,000.00,029.1,024.8,000.0,037.6,030.4,22.3,0000.0,0009.70,0004.02,0002.97
2023-06-09 21:27:00,SystemResetWarning,0829.4,5.00,000.00,029.0,025.1,000.0,037.6,030.3,22.8,0000.0,0011.30,0004.18,0003.01
2023-06-09 21:28:00,SystemResetWarning,0829.5,5.00,000.00,029.0,025.5,000.0,037.6,030.3,22.5,0000.0,0011.78,0004.24,0003.02
2023-06-09 21:29:00,SystemResetWarning,0829.5,5.01,000.00,029.0,025.8,000.0,037.6,030.2,23.0,0000.0,0012.10,0004.31,0003.04
2023-06-09 21:30:00,SystemResetWarning,0829.5,5.01,000.00,028.9,026.2,000.0,037.6,030.3,22.6,0000.0,0012.11,0004.40,0003.07
2023-06-09 21:31:00,SystemResetWarning,0829.7,4.99,000.00,028.9,026.4,000.0,037.5,030.3,21.4,0000.0,0012.49,0004.50,0003.10
2023-06-09 21:32:00,SystemResetWarning,0829.7,4.99,000.00,028.9,026.6,000.0,037.5,030.3,21.3,0000.0,0012.59,0004.49,0003.12
2023-06-09 21:33:00,SystemResetWarning,0829.7,5.00,000.00,028.9,026.8,000.0,037.5,030.3,22.6,0000.0,0012.60,0004.51,0003.13
2023-06-09 21:34:00,SystemResetWarning,0829.7,5.01,000.00,028.9,027.0,000.0,037.5,030.4,22.5,0000.0,0012.72,0004.56,0003.15
2023-06-09 21:35:00,SystemResetWarning,0829.8,5.01,000.00,029.0,027.1,000.0,037.5,030.4,22.2,0000.0,0012.78,0004.59,0003.16
2023-06-09 21:36:00,SystemResetWarning,0829.7,4.99,000.00,029.0,027.2,000.0,037.5,030.4,22.7,0000.0,0012.69,0004.60,0003.17
2023-06-09 21:37:00,SystemResetWarning,0829.8,4.99,000.00,029.0,027.3,000.0,037.6,030.5,21.9,0000.0,0012.72,0004.60,0003.17
2023-06-09 21:38:00,SystemResetWarning,0829.9,5.01,000.00,029.0,027.4,000.0,037.6,030.5,17.9,0000.0,0011.65,0004.50,0003.15
2023-06-09 21:39:00,SystemResetWarning,0830.1,5.01,000.00,029.0,027.4,000.0,037.6,030.5,16.2,0000.0,0010.84,0004.36,0003.09
2023-06-09 21:40:00,SystemResetWarning,0830.2,5.00,000.00,029.0,027.5,000.0,037.6,030.5,16.2,0000.0,0010.26,0004.25,0003.01
2023-06-09 21:41:00,SystemResetWarning,0830.2,5.00,000.00,029.0,027.5,000.0,037.6,030.5,15.9,0000.0,0009.57,0004.10,0002.89
2023-06-09 21:42:00,SystemResetWarning,0830.2,5.00,000.00,029.1,027.6,000.0,037.6,030.5,15.9,0000.0,0009.22,0003.94,0002.77
2023-06-09 21:43:00,SystemResetWarning,0830.3,5.00,000.00,029.1,027.6,000.0,037.6,030.6,16.3,0000.0,0008.72,0003.79,0002.65
2023-06-09 21:44:00,SystemResetWarning,0830.2,5.00,000.00,029.1,027.7,000.0,037.6,030.7,16.7,0000.0,0008.55,0003.70,0002.56
2023-06-09 21:45:00,SystemResetWarning,0830.2,5.00,000.00,029.1,027.7,000.0,037.6,030.7,16.0,0000.0,0008.45,0003.60,0002.46
2023-06-09 21:46:00,SystemResetWarning,0830.2,5.00,000.00,029.2,027.8,000.0,037.6,030.8,16.9,0000.0,0008.26,0003.49,0002.35
2023-06-09 21:47:00,SystemResetWarning,0830.1,5.00,000.00,029.2,027.9,000.0,037.7,030.8,17.7,0000.0,0008.02,0003.39,0002.25
2023-06-09 21:48:00,SystemResetWarning,0830.1,5.00,000.00,029.2,027.9,000.0,037.7,030.8,17.5,0000.0,0007.73,0003.25,0002.12
2023-06-09 21:49:00,SystemResetWarning,0830.1,5.00,000.00,029.3,028.0,000.0,037.7,030.9,16.4,0000.0,0006.75,0003.09,0002.02
2023-06-09 21:50:00,SystemResetWarning,0830.1,5.00,000.00,029.3,027.9,000.0,037.7,030.9,17.0,0000.0,0006.42,0003.01,0002.00
2023-06-09 21:51:00,SystemResetWarning,0830.1,5.00,000.00,029.3,026.2,000.0,037.7,030.9,17.6,0000.0,0006.30,0002.98,0001.99
2023-06-09 21:52:00,SystemResetWarning,0830.0,5.01,000.00,029.3,024.7,000.0,037.7,030.8,18.1,0000.0,0006.12,0003.00,0001.99
2023-06-09 21:53:00,SystemResetWarning,0830.0,5.01,000.00,029.2,024.6,000.0,037.6,030.6,17.1,0000.0,0005.50,0002.94,0001.95
2023-06-09 21:54:00,SystemResetWarning,0830.0,5.01,000.00,029.1,024.9,000.0,037.6,030.4,17.2,0000.0,0005.24,0002.85,0001.91
2023-06-09 21:55:00,SystemResetWarning,0830.0,4.99,000.00,029.1,025.3,000.0,037.6,030.3,17.9,0000.0,0005.12,0002.82,0001.89
2023-06-09 21:56:00,SystemResetWarning,0830.0,5.00,000.00,029.0,025.7,000.0,037.6,030.2,18.4,0000.0,0005.24,0002.81,0001.84
2023-06-09 21:57:00,SystemResetWarning,0830.0,5.02,000.00,029.0,026.1,000.0,037.6,030.2,17.7,0000.0,0005.22,0002.81,0001.81
2023-06-09 21:58:00,SystemResetWarning,0830.0,4.99,000.00,029.0,026.4,000.0,037.6,030.2,18.3,0000.0,0005.16,0002.76,0001.77
2023-06-09 21:59:00,SystemResetWarning,0830.0,5.00,000.00,029.0,026.6,000.0,037.6,030.2,18.1,0000.0,0005.11,0002.73,0001.76
